Location: Asbacherhof
(48.8543°N, 10.7903°E)
Time: 17:54:08
(UTC+00:00)

Cosmos 1980 - Visible Passes

Search period start: 06 October 2022 00:00
Search period end: 16 October 2022 00:00
Orbit: 837 x 848 km, 71.0° (Epoch: 05 October)

Date Brightness Start Highest point End Pass type
(mag) Time Alt. Az. Time Alt. Az. Time Alt. Az.
06 Oct 6.2 03:52:11 10° N 03:55:48 17° NE 03:59:23 10° ENE visible
06 Oct 6.6 22:25:40 10° NNE 22:25:40 10° NNE 22:25:44 10° NNE visible
07 Oct 6.2 03:37:33 10° N 03:41:04 16° NE 03:44:35 10° ENE visible
08 Oct 6.3 03:22:55 10° N 03:26:21 16° NE 03:29:46 10° ENE visible
09 Oct 6.3 03:08:17 10° N 03:11:37 16° NNE 03:14:58 10° ENE visible
09 Oct 4.5 04:51:24 10° NNW 04:57:02 57° ENE 05:02:36 10° SE visible
10 Oct 6.3 02:53:40 10° N 02:56:54 15° NNE 03:00:08 10° ENE visible
10 Oct 4.5 04:36:44 10° NNW 04:42:20 55° NE 04:47:53 10° SE visible
11 Oct 6.4 02:39:01 10° N 02:42:11 15° NNE 02:45:19 10° ENE visible
11 Oct 4.6 04:22:05 10° NNW 04:27:39 53° NE 04:33:11 10° SE visible
12 Oct 6.4 02:24:24 10° N 02:27:27 14° NNE 02:30:29 10° ENE visible
12 Oct 4.6 04:07:24 10° NNW 04:12:58 51° NE 04:18:28 10° SE visible
13 Oct 6.4 02:09:47 10° N 02:12:43 14° NNE 02:15:39 10° ENE visible
13 Oct 4.7 03:52:44 10° NNW 03:58:17 49° NE 04:03:45 10° SE visible
13 Oct 5.4 18:48:18 10° S 18:49:37 17° S 18:49:37 17° S visible
13 Oct6.620:45:04NNE20:45:04NNE20:31:38WSWvisible
14 Oct 6.5 01:55:10 10° N 01:57:59 14° NNE 02:00:49 10° ENE visible
14 Oct 4.7 03:38:05 10° NNW 03:43:35 47° NE 03:49:02 10° SE visible
14 Oct 4.2 18:33:40 10° S 18:37:45 38° SE 18:37:45 38° SE visible
14 Oct 5.8 20:17:55 10° WSW 20:30:52 - NNE 20:19:46 20° WSW visible
15 Oct 6.5 01:40:32 10° N 01:43:15 13° NNE 01:45:58 10° ENE visible
15 Oct 4.7 03:23:25 10° NNW 03:28:53 46° NE 03:34:19 10° SE visible
15 Oct 4.0 18:19:04 10° S 18:24:21 42° ESE 18:25:53 35° ENE visible
15 Oct 4.9 20:03:10 10° WSW 20:07:54 38° WNW 20:07:54 38° WNW visible
15 Oct6.921:58:42NNE21:58:42NNE21:49:54WNWvisible
